Weather in Madaba

Jordan     31°43′14″N   35°47′41″E
temp.,
°C
wind,
m/s
gust,
m/s
humid.,
%
clouds,
%
prec.,
mm/h
press.,
hPa
HPBL,
m
13 june, sun
sun1300:00+26e22235 0.0 101215
03:00+24ne11271 0.0 101111
06:00+24e11314 0.0 101111
09:00+29s12220 0.0 1011579
12:00+33wsw25180 0.0 10101700
15:00+34nw64170 0.0 10091024
18:00+30nw77250 0.0 1009735
21:00+25nw35330 0.0 1010230
14 june, mon
mon1400:00+22wnw24340 0.0 1011136
03:00+20wnw12390 0.0 101143
06:00+19nw11480 0.0 101133
09:00+22wnw33450 0.0 1011465
12:00+25wnw55420 0.0 1011826
15:00+27wnw77360 0.0 10101299
18:00+25nw98340 0.0 10101132
21:00+20wnw58540 0.0 1012722
15 june, tue
tue1500:00+18wnw35720 0.0 1013310
03:00+17w23810 0.0 1012114
06:00+16w22872 0.0 101390
09:00+19wnw45640 0.0 1013578
12:00+24wnw43450 0.0 1012873
15:00+27wnw43320 0.0 10101187
18:00+26nw65340 0.0 10101236
21:00+22nw45480 0.0 1011459
16 june, wed
wed1600:00+19nw23640 0.0 101296
03:00+17nw22690 0.0 101239
06:00+17wnw23780 0.0 101362
09:00+20wnw44640 0.0 1014571
12:00+24wnw55450 0.0 1013847
15:00+27wnw67360 0.0 10121340
18:00+25nw99450 0.0 10131232
21:00+20wnw46590 0.0 1015591
17 june, thu
thu1700:00+18wnw35740 0.0 1015476
03:00+16wnw22870 0.0 101694
06:00+15w12900 0.0 101665
09:00+19wnw33560 0.0 1016484
12:00+23wnw44370 0.0 1015720
15:00+27wnw55310 0.0 1014947
18:00+26nw77340 0.0 10141013
21:00+21nw34510 0.0 1015280